Location: Baia Mare
(47.6567°N, 23.5850°E)
Time: 03:22:58

ISS - Pass Details

Date: 05 March 2018
Orbit: 403 x 406 km, 51.6° (Epoch: 19 March)

Event Time Altitude Azimuth Distance (km) Brightness Sun altitude
Exits shadow 04:34:39 29° 99° (E) 783 -1.9 -24.8°
Drops below altitude 10° 04:36:37 10° 75° (ENE) 1,466 0.1 -24.5°
Sets 04:38:46 0° 68° (ENE) 2,328 1.5 -24.2°
